Overview Statistics Trail Chart Weather Telemetry Raw packets
 

This is the latest recevied weather packets stored in our database for station/object OE5MMP-13. If no packets are shown the sender has not sent any weather packets the latest 10 day(s).

<< 33 34 35 36 37 38 39 >>
Time Temp. Humidity Pressure Rain* Wind** Luminosity Snow
1788185007 23.89° C 58% 1017.6 hPa 0 mm - 122 W/m² -
1788184407 23.89° C 59% 1017.6 hPa 0 mm - 679 W/m² -
1788183807 23.89° C 59% 1017.6 hPa 0 mm - 258 W/m² -
1788183218 23.89° C 58% 1017.6 hPa 0 mm - 690 W/m² -
1788182607 23.33° C 59% 1017.7 hPa 0 mm - 635 W/m² -
1788182007 23.89° C 59% 1017.8 hPa 0 mm - 707 W/m² -
1788181407 23.33° C 59% 1017.9 hPa 0 mm - 181 W/m² -
1788180807 22.78° C 61% 1018 hPa 0 mm - 294 W/m² -
1788180207 23.33° C 60% 1018.4 hPa 0 mm - 142 W/m² -
1788179607 23.33° C 58% 1018.3 hPa 0 mm - 896 W/m² -
1788179006 23.33° C 58% 1018.3 hPa 0 mm - 264 W/m² -
1788178406 23.33° C 58% 1018.3 hPa 0 mm - 758 W/m² -
1788177807 23.33° C 59% 1018.4 hPa 0 mm - 870 W/m² -
1788177206 23.33° C 56% 1018.3 hPa 0 mm - 820 W/m² -
1788176606 23.33° C 59% 1018.4 hPa 0 mm - 777 W/m² -
1788176006 22.78° C 60% 1018.5 hPa 0 mm - 820 W/m² -
1788175406 22.78° C 60% 1018.5 hPa 0 mm - 357 W/m² -
1788174810 22.78° C 62% 1018.6 hPa 0 mm - 738 W/m² -
1788174207 22.78° C 62% 1018.6 hPa 0 mm - 179 W/m² -
1788173606 22.78° C 61% 1018.6 hPa 0 mm - 823 W/m² -
1788173006 22.22° C 61% 1018.4 hPa 0 mm - 780 W/m² -
1788172406 21.67° C 64% 1018.6 hPa 0 mm - 641 W/m² -
1788171806 22.22° C 63% 1018.7 hPa 0 mm - 198 W/m² -
1788171206 21.67° C 63% 1018.6 hPa 0 mm - 905 W/m² -
1788170606 21.11° C 67% 1018.6 hPa 0 mm - 752 W/m² -

* Rain latest hour (hover to see other rain measurements)
** Current wind speed in m/s (hover to see current wind gust speed)